Date,TemperatureHighF,TemperatureAvgF,TemperatureLowF,DewpointHighF,DewpointAvgF,DewpointLowF,HumidityHigh,HumidityAvg,HumidityLow,PressureMaxIn,PressureMinIn,WindSpeedMaxMPH,WindSpeedAvgMPH,GustSpeedMaxMPH,PrecipitationSumIn
2013-3-10,32.5,31.8,31.4,25.8,25.6,25.3,79,78,76,30.04,30.03,4,1,0,0.00
2013-3-11,61.3,41.6,24.4,38.7,26.2,18.1,80,58,28,30.07,29.94,13,3,13,0.00
2013-3-12,58.7,47.4,38.2,40.2,34.6,30.5,82,62,39,30.35,30.01,17,5,17,0.00
2013-3-13,63.1,47.8,32.9,40.4,34.2,27.4,82,61,36,30.45,30.25,20,4,20,0.00
2013-3-14,77.5,57.8,40.2,46.9,41.0,34.6,83,57,25,30.28,30.07,18,4,18,0.00
2013-3-15,81.2,64.0,46.1,51.4,45.0,40.3,82,53,28,30.09,29.69,20,4,20,0.00
2013-3-16,64.6,56.3,44.7,48.8,43.8,35.8,82,63,51,29.85,29.62,26,11,26,0.00
2013-3-17,50.7,42.3,37.4,40.4,35.8,31.8,91,78,66,29.89,29.66,29,8,29,0.00
2013-3-18,59.6,47.4,38.4,40.2,33.3,24.4,95,64,27,30.03,29.65,27,8,27,0.00
2013-3-19,58.4,47.6,35.6,39.7,33.8,27.1,77,60,38,30.24,29.99,17,2,17,0.00
2013-3-20,57.3,45.4,31.4,36.1,31.7,27.0,85,60,35,30.39,29.97,16,5,14,0.00
2013-3-21,68.0,52.1,41.1,46.3,36.8,30.8,81,57,42,29.97,29.48,24,10,24,0.00
2013-3-22,45.9,38.8,34.8,38.1,35.1,32.4,94,87,72,29.94,29.65,25,10,25,0.00
2013-3-23,42.0,38.9,33.8,39.2,37.1,32.3,96,93,87,30.01,29.72,22,7,22,0.01
2013-3-24,42.7,34.0,27.6,32.3,23.7,17.3,94,68,39,30.29,30.01,32,12,32,0.00
2013-3-25,44.6,35.6,25.4,24.1,18.3,12.5,78,52,31,30.46,30.28,25,8,25,0.00
2013-3-26,55.5,38.5,19.5,25.5,20.5,14.0,82,52,29,30.50,30.18,21,5,21,0.00
2013-3-27,70.5,54.1,42.5,41.9,32.2,24.9,71,44,29,30.19,29.99,28,8,28,0.00
2013-3-28,73.7,57.2,40.1,53.0,46.8,36.9,92,70,45,30.09,29.96,17,4,17,0.00
2013-3-29,73.9,61.2,48.8,60.1,55.0,47.4,97,81,59,30.04,29.92,16,4,16,0.00
2013-3-30,82.0,65.2,49.3,58.1,50.8,38.9,97,66,25,29.97,29.81,17,3,17,0.01
2013-3-31,69.4,59.2,51.3,53.7,46.5,38.0,92,66,33,30.02,29.84,37,7,37,0.17
2013-4-1,61.9,50.4,38.2,49.1,42.5,33.2,89,75,57,30.12,29.96,25,9,25,0.01
2013-4-2,38.4,37.1,35.5,36.7,34.5,31.6,95,90,79,30.20,30.09,26,15,26,0.09
2013-4-3,37.9,36.4,35.6,36.4,35.1,34.0,95,95,93,30.29,30.17,20,10,16,0.04
2013-4-4,47.3,40.2,34.5,40.5,37.1,33.2,96,89,75,30.28,30.18,11,4,0,0.06
2013-4-5,64.1,49.4,33.9,50.3,43.0,32.3,96,80,59,30.23,29.83,22,6,22,0.06
2013-4-6,74.5,61.4,51.2,56.0,49.7,46.6,85,67,40,29.84,29.74,22,5,22,0.04
2013-4-7,75.3,61.6,47.5,63.5,56.6,44.9,96,85,63,29.82,29.57,20,7,20,0.03
2013-4-8,82.3,69.0,60.3,67.3,62.2,58.8,95,81,54,29.58,29.42,28,10,30,0.02
2013-4-9,74.0,55.8,32.4,64.5,50.4,30.1,92,82,61,29.99,29.46,29,12,29,0.01
2013-4-10,43.9,33.2,27.6,34.3,29.0,24.2,92,85,64,30.12,29.85,15,2,14,0.26
2013-4-11,59.6,42.7,27.6,39.3,30.2,23.1,85,64,34,30.07,29.75,18,4,18,0.27
2013-4-12,60.9,48.1,34.8,44.5,39.1,31.8,90,72,51,30.07,29.87,15,4,0,0.00
2013-4-13,73.8,58.8,45.7,52.2,44.9,39.2,82,62,35,30.02,29.61,25,10,25,0.00
2013-4-14,84.2,66.8,55.7,59.4,51.6,34.9,79,60,27,29.62,29.40,26,11,26,0.00
2013-4-15,67.7,58.3,49.0,51.6,39.0,29.7,65,49,37,29.79,29.58,28,13,28,0.00
2013-4-16,54.9,48.7,46.3,46.8,41.6,36.1,95,77,64,29.98,29.74,24,12,24,0.00
2013-4-17,48.6,46.8,42.0,47.8,46.0,41.2,98,97,95,29.90,29.61,26,9,26,0.09
2013-4-18,49.4,40.9,33.4,41.1,31.6,25.1,97,71,44,30.20,29.74,34,13,34,0.03
2013-4-19,67.3,48.5,29.9,34.7,27.0,21.0,80,49,19,30.27,30.05,20,3,20,0.00
2013-4-20,70.8,55.5,43.7,38.1,34.2,31.1,66,47,24,30.06,29.89,29,9,29,0.00
2013-4-21,68.3,59.3,49.9,52.0,44.5,34.1,78,59,44,30.09,29.98,22,9,22,0.00
2013-4-22,76.8,62.4,45.9,60.9,53.3,43.4,91,73,54,30.02,29.67,29,10,29,0.05
2013-4-23,45.7,36.5,34.5,43.4,32.8,27.6,93,86,73,30.34,29.85,34,14,34,0.02
2013-4-24,60.4,43.7,26.9,36.7,30.2,24.9,93,64,29,30.41,30.26,17,3,18,0.00
2013-4-25,66.8,54.3,38.4,41.5,35.6,31.0,82,53,27,30.34,30.06,18,5,18,0.00
2013-4-26,72.2,60.5,53.8,58.6,51.2,41.1,96,72,54,30.08,29.83,31,8,31,0.25
2013-4-27,71.0,58.6,51.0,56.4,52.6,49.9,97,82,51,30.14,29.97,18,5,18,0.11
2013-4-28,85.5,66.4,50.8,58.6,51.7,40.4,96,66,24,29.99,29.73,17,5,17,0.01
2013-4-29,89.3,73.8,61.0,61.1,54.0,42.6,89,56,21,29.77,29.56,27,9,27,0.00
2013-4-30,85.7,73.1,62.7,62.9,58.9,50.8,85,63,38,29.65,29.55,25,12,25,0.00
2013-5-1,78.8,60.9,40.8,66.0,54.9,37.3,92,81,55,30.19,29.61,32,11,32,0.00
2013-5-2,53.1,42.8,36.4,37.3,34.5,28.1,94,75,41,30.49,30.18,40,16,40,0.41
2013-5-3,62.8,48.8,33.4,36.2,31.5,26.2,84,56,25,30.45,30.03,21,4,21,0.00
2013-5-4,65.0,51.3,38.8,41.6,32.0,19.0,78,52,21,30.10,29.95,29,8,29,0.00
2013-5-5,67.4,54.0,45.9,50.2,44.8,40.0,87,72,51,30.20,30.06,19,6,19,0.00
2013-5-6,74.7,61.1,46.2,54.1,49.5,42.8,94,69,41,30.13,29.98,10,1,0,0.00
2013-5-7,80.5,67.3,55.9,56.3,52.6,49.6,86,62,36,30.03,29.81,23,6,23,0.00
2013-5-8,85.1,70.3,59.1,67.4,56.9,50.9,87,64,48,29.85,29.67,18,7,21,0.01
2013-5-9,70.4,64.7,56.2,63.4,60.4,53.9,94,86,72,29.94,29.74,28,6,28,0.31
2013-5-10,70.3,62.4,56.1,61.0,54.7,50.4,93,77,53,30.08,29.93,19,6,19,0.05
2013-5-11,75.5,62.8,52.6,57.2,50.1,43.3,87,65,43,30.24,30.08,22,5,22,0.02
2013-5-12,78.3,63.2,47.3,51.0,44.1,37.5,82,54,28,30.24,30.00,23,5,23,0.01
2013-5-13,93.5,75.4,58.2,49.9,45.9,40.0,66,39,16,30.05,29.90,19,5,19,0.00
2013-5-14,89.0,76.1,63.2,56.0,49.0,42.4,56,40,24,29.97,29.77,24,7,24,0.00
2013-5-15,75.4,68.3,62.0,63.3,59.0,54.4,91,73,56,29.83,29.69,16,4,18,0.00
2013-5-16,78.2,66.5,57.2,63.6,60.2,55.8,97,82,56,29.80,29.70,16,3,16,0.00
2013-5-17,75.8,68.4,60.5,70.6,65.9,58.3,97,92,82,29.81,29.74,13,3,0,0.01
2013-5-18,93.7,77.5,67.7,74.7,67.3,52.0,97,74,41,29.76,29.50,39,10,39,0.07
2013-5-19,95.0,78.9,66.7,70.0,55.9,31.4,92,55,11,29.59,29.43,28,6,28,0.04
2013-5-20,83.8,71.8,60.0,61.7,57.0,53.8,82,62,37,29.72,29.53,18,5,18,0.00
2013-5-21,74.6,64.9,57.5,58.2,50.8,46.3,83,62,43,29.92,29.71,25,6,25,0.06
2013-5-22,83.3,68.4,53.6,60.3,53.0,48.6,87,62,35,29.90,29.76,18,4,18,0.00
2013-5-23,77.8,66.1,60.7,64.6,60.1,56.5,90,81,59,30.04,29.83,22,7,22,0.00
2013-5-24,85.2,71.2,60.0,71.1,64.5,57.1,92,80,58,30.10,29.95,23,7,23,0.00
2013-5-25,83.0,71.9,62.4,67.7,63.6,59.3,91,76,54,30.05,29.88,24,8,24,0.00
2013-5-26,88.7,76.8,67.8,69.4,67.3,64.8,93,75,47,29.93,29.74,26,10,26,0.00
2013-5-27,91.7,79.3,71.0,69.9,68.2,64.8,87,71,45,29.76,29.51,32,12,32,0.00
2013-5-28,83.7,76.7,72.3,71.3,68.8,66.9,88,77,62,29.61,29.57,29,10,29,0.00
2013-6-1,80.7,70.7,62.5,54.8,52.5,47.1,75,55,32,29.99,29.88,16,5,16,0.01
2013-6-2,78.5,65.7,52.4,54.2,51.4,47.8,90,63,36,30.11,29.91,16,4,16,0.00
2013-6-3,61.0,59.8,59.2,53.4,52.5,51.7,78,77,76,29.96,29.91,10,4,0,0.00
2013-6-21,82.9,81.7,80.5,68.0,67.6,67.2,65,63,60,29.80,29.78,18,10,18,0.00
2013-6-22,94.2,84.6,73.2,67.5,63.5,59.6,70,51,34,29.84,29.68,29,10,29,0.00
2013-6-23,95.0,84.8,75.0,67.3,62.8,54.3,68,50,27,29.75,29.67,26,10,26,0.00
2013-6-24,94.3,84.6,75.3,67.5,63.7,59.9,65,51,33,29.82,29.67,26,10,35,0.00
2013-6-25,98.3,86.4,77.0,71.4,67.7,64.0,67,55,38,29.74,29.58,28,10,28,0.00
2013-6-26,100.9,89.3,77.0,72.3,67.2,62.6,66,49,35,29.78,29.64,18,6,18,0.00
2013-6-27,106.1,89.7,76.0,71.6,66.7,57.6,79,52,23,29.95,29.69,30,5,32,0.00
2013-6-28,97.0,85.0,69.8,70.9,61.4,53.9,75,48,24,29.92,29.80,21,5,21,0.00
2013-6-29,92.3,80.8,70.0,63.5,59.9,55.3,76,52,31,29.94,29.77,19,4,19,0.00
2013-6-30,87.6,76.7,66.7,61.0,55.7,51.3,80,51,31,29.98,29.84,23,7,23,0.03
2013-7-1,83.2,72.1,60.8,57.2,50.5,39.8,75,50,24,30.08,29.98,21,6,21,0.00
2013-7-2,85.3,73.7,58.9,52.7,47.1,40.9,70,42,23,30.10,29.97,18,3,18,0.00
2013-7-3,88.8,74.7,59.1,56.3,49.8,42.3,75,46,20,30.02,29.84,16,3,16,0.00
2013-7-4,90.8,77.1,64.3,59.6,53.6,49.1,71,47,25,29.94,29.79,19,5,19,0.02
2013-7-5,96.1,81.8,68.5,62.6,58.3,49.6,81,49,22,29.86,29.70,21,10,21,0.06
2013-7-6,94.9,83.3,72.0,61.8,58.8,52.9,64,45,25,29.81,29.71,23,9,23,0.00
2013-7-7,97.2,85.3,73.6,65.1,61.3,53.8,66,47,25,29.88,29.78,20,8,20,0.00
2013-7-8,98.2,86.1,74.0,68.1,64.4,61.1,72,51,30,29.93,29.82,18,6,18,0.00
2013-7-9,100.7,89.4,77.7,68.0,64.3,59.3,67,46,28,29.92,29.78,20,6,20,0.00
2013-7-10,102.8,89.3,78.7,67.4,62.9,57.8,57,43,26,29.91,29.77,16,4,16,0.03
2013-7-11,98.1,85.0,77.1,69.1,65.8,61.3,73,54,32,29.87,29.77,15,3,16,0.02
2013-7-12,99.8,86.5,73.4,69.4,66.2,61.8,81,54,31,29.85,29.76,20,5,20,0.00
2013-7-13,102.3,89.3,77.0,69.4,64.9,56.8,71,48,23,29.86,29.73,19,6,19,0.00
2013-7-14,84.7,71.9,65.4,66.7,63.5,58.9,95,77,54,30.02,29.77,22,6,22,0.15
2013-7-15,74.1,68.0,63.8,66.7,64.2,62.1,96,88,72,30.08,29.99,14,5,17,0.09
2013-7-16,80.4,72.2,66.7,71.8,68.0,65.2,96,87,69,30.18,30.07,18,4,18,0.03
2013-7-17,86.9,74.7,68.3,72.2,69.1,66.9,97,84,56,30.22,30.12,15,3,21,0.01
2013-7-18,90.0,78.9,69.0,73.1,67.7,63.2,97,72,43,30.14,29.93,19,4,19,0.01
2013-7-19,92.9,81.8,69.9,69.7,65.6,62.3,88,61,38,29.98,29.79,18,4,18,0.01
2013-7-20,95.8,84.0,72.2,71.3,65.6,60.1,90,58,33,29.87,29.70,18,4,19,0.00
2013-7-21,97.7,86.4,76.3,69.9,65.1,58.1,77,53,28,29.77,29.66,18,5,18,0.00
2013-7-22,98.3,87.1,74.2,69.9,67.0,63.3,78,53,33,29.80,29.68,20,6,20,0.00
2013-7-23,99.7,88.5,75.5,72.2,68.9,65.6,81,55,35,29.79,29.64,20,5,22,0.00
2013-7-24,93.7,83.0,69.9,70.4,67.7,63.6,83,62,42,29.93,29.70,22,5,22,0.00
2013-7-25,80.1,75.2,70.1,72.0,69.4,64.7,93,82,67,30.03,29.88,20,4,20,0.24
2013-7-26,84.7,74.9,68.7,71.6,68.6,67.0,97,82,57,30.01,29.83,24,8,24,1.63
2013-7-27,88.0,77.7,66.7,71.2,66.7,63.1,93,71,44,30.02,29.81,16,3,16,0.04
2013-7-28,87.5,77.5,68.5,69.3,65.2,55.8,94,69,36,29.90,29.78,21,6,21,0.00
2013-7-29,92.0,80.9,68.3,75.6,71.0,64.0,89,73,53,29.90,29.69,48,10,48,0.00
2013-7-30,85.2,77.9,69.7,74.1,70.4,65.0,91,78,66,29.97,29.84,22,4,22,0.24
2013-7-31,88.7,79.3,71.7,73.5,70.9,68.1,96,77,53,30.05,29.92,16,4,14,0.01
2013-8-1,92.0,81.4,70.4,72.2,69.7,63.2,94,70,40,30.02,29.84,17,3,17,0.00
2013-8-2,102.8,88.8,75.5,73.5,67.5,59.3,88,55,25,29.86,29.65,21,6,21,0.00
2013-8-3,100.7,88.7,79.1,69.0,65.3,61.0,63,47,29,29.88,29.73,24,7,24,0.00
2013-8-4,99.9,87.4,76.7,69.2,65.9,59.4,71,51,28,29.95,29.76,21,5,21,0.00
2013-8-5,102.3,89.8,78.7,68.4,64.6,59.8,67,46,26,29.83,29.64,19,6,20,0.00
2013-8-6,104.2,89.7,74.0,65.3,62.5,57.6,71,44,24,29.75,29.58,25,6,25,0.00
2013-8-7,95.0,84.8,75.1,73.5,66.5,63.4,72,56,40,29.77,29.66,22,6,22,0.00
2013-8-8,86.1,75.7,68.8,74.7,69.8,66.2,94,83,61,29.87,29.69,27,4,29,2.71
2013-8-9,82.6,74.3,67.4,70.6,68.6,65.2,97,84,62,30.03,29.81,19,4,19,0.25
2013-8-10,82.1,73.8,66.7,68.3,65.8,63.4,92,77,57,30.12,29.98,14,5,13,0.00
2013-8-11,91.9,77.9,67.1,73.8,68.8,64.9,96,76,48,30.06,29.91,26,2,26,0.27
2013-8-12,93.5,77.3,70.7,75.4,69.0,58.6,89,77,45,29.99,29.83,35,5,35,0.79
2013-8-13,82.4,73.8,67.5,71.8,68.9,65.4,96,85,65,30.02,29.88,24,4,24,0.83
2013-8-14,82.4,73.6,66.9,67.7,65.7,61.3,96,78,52,30.08,29.94,12,4,12,0.00
2013-8-15,86.1,74.4,66.1,72.6,68.0,63.7,93,81,57,30.01,29.87,12,3,12,0.00
2013-8-16,85.2,73.7,64.0,69.4,65.6,61.3,93,77,56,30.04,29.91,21,3,21,0.00
2013-8-17,82.3,73.4,65.3,67.6,65.0,62.9,92,76,57,30.07,29.95,11,3,0,0.00
2013-8-18,84.7,74.9,65.7,66.4,64.4,62.1,89,71,50,30.05,29.92,17,5,17,0.00
2013-8-19,89.0,77.7,67.2,66.3,63.8,61.8,84,64,44,29.99,29.87,26,5,26,0.00
2013-8-20,92.2,80.6,69.6,66.3,63.6,60.8,79,58,40,29.94,29.85,22,6,22,0.00
2013-8-21,92.0,80.5,68.5,63.9,60.2,54.8,74,53,30,29.99,29.89,17,5,17,0.00
2013-8-22,92.8,82.0,69.1,69.6,64.5,60.2,80,57,36,29.99,29.85,14,3,14,0.00
2013-8-23,95.4,83.7,72.6,69.6,66.7,59.8,83,60,32,29.94,29.81,16,5,16,0.00
2013-8-24,94.8,83.6,72.9,70.3,67.5,63.8,81,61,38,29.98,29.89,15,5,15,0.00
2013-8-25,94.2,83.9,73.9,70.1,67.5,63.5,78,60,38,30.06,29.97,19,5,19,0.00
2013-8-26,92.0,82.2,72.3,69.1,65.9,62.1,77,59,40,30.08,29.96,21,5,21,0.00
2013-8-27,91.0,79.9,69.0,68.4,64.8,60.9,79,61,40,30.02,29.91,19,5,19,0.00
2013-8-28,94.5,82.5,71.1,71.8,66.9,62.9,87,62,38,29.97,29.87,19,4,19,0.00
2013-8-29,96.2,84.3,71.7,64.8,61.6,58.1,73,49,29,29.97,29.85,16,3,16,0.00
2013-8-30,101.7,87.4,73.5,66.6,61.4,57.6,66,44,25,29.90,29.74,17,3,17,0.00
2013-8-31,103.2,88.9,75.1,64.4,59.4,56.8,57,39,23,29.79,29.66,16,3,16,0.00
2013-9-1,87.5,82.0,74.8,68.7,63.1,57.5,72,53,42,29.87,29.69,20,4,20,0.00
2013-9-2,88.4,78.6,70.4,68.6,60.6,52.3,89,58,31,29.99,29.86,16,5,16,0.00
2013-9-3,91.2,76.6,62.6,62.8,57.1,51.6,85,55,28,30.02,29.89,11,2,0,0.00
2013-9-4,93.4,78.3,59.7,63.1,57.3,47.5,84,53,22,30.05,29.95,11,2,0,0.00
2013-9-5,97.3,82.0,65.3,68.6,62.9,56.3,87,56,28,30.05,29.93,14,3,14,0.00
2013-9-6,97.8,84.6,71.2,66.3,62.8,60.4,72,50,30,30.00,29.85,13,4,13,0.00
2013-9-7,99.3,85.8,72.1,65.3,62.3,58.2,72,48,26,29.91,29.79,15,3,15,0.00
2013-9-8,96.3,84.0,71.8,65.2,60.7,54.1,72,48,26,29.87,29.76,19,4,19,0.00
2013-9-9,92.8,82.0,70.4,65.7,60.1,56.4,74,50,30,29.87,29.76,22,5,22,0.00
2013-9-10,90.3,81.4,71.2,66.1,62.4,59.3,79,54,37,29.99,29.85,21,5,21,0.00
2013-9-11,91.8,81.4,71.5,66.8,62.6,59.6,77,55,37,30.04,29.92,15,4,15,0.00
2013-9-12,94.3,79.8,67.5,68.5,62.9,58.8,81,59,32,30.02,29.90,18,3,18,0.00
2013-9-13,79.6,74.3,69.3,68.1,64.4,57.4,88,72,58,29.99,29.89,21,8,21,0.00
2013-9-14,83.8,73.1,65.3,67.8,62.0,54.8,87,69,57,29.97,29.83,12,3,0,0.18
2013-9-15,89.8,79.4,69.5,66.3,62.8,60.5,75,59,38,29.96,29.86,17,4,17,0.00
2013-9-16,83.8,74.2,66.7,71.1,67.5,62.9,94,80,61,30.09,29.93,16,4,16,1.66
2013-9-17,86.8,74.3,67.9,72.0,68.4,65.3,96,83,57,30.09,29.87,23,4,24,0.24
2013-9-18,89.5,78.6,70.3,70.4,66.4,61.8,91,69,40,29.90,29.75,22,5,22,0.00
2013-9-19,85.8,75.6,65.6,69.4,64.9,62.1,90,70,49,29.93,29.77,24,5,24,0.19
2013-9-20,69.4,65.2,59.4,63.6,57.8,52.5,93,78,56,30.01,29.85,22,7,22,0.00
2013-9-21,81.6,68.0,55.8,57.2,51.6,45.8,86,60,29,30.02,29.86,10,2,0,0.00
2013-9-22,82.9,69.2,55.9,55.5,50.5,47.6,80,54,30,29.89,29.72,17,4,17,0.00
2013-9-23,83.2,70.4,55.3,54.1,51.8,49.1,83,54,34,29.84,29.66,26,6,26,0.00
2013-9-24,85.2,72.9,61.4,52.7,46.8,40.4,67,42,22,29.94,29.83,22,4,22,0.00
2013-9-25,88.3,72.9,56.4,57.0,50.6,43.5,75,48,28,29.85,29.66,17,4,17,0.00
2013-9-26,92.0,79.6,68.5,62.6,57.7,51.8,70,49,31,29.73,29.64,24,8,24,0.00
2013-9-27,87.7,77.8,66.5,69.6,62.4,52.5,75,60,47,29.78,29.64,25,9,25,0.00
2013-9-28,78.3,66.2,56.4,71.1,55.1,45.2,92,69,40,30.09,29.68,27,8,27,1.45
2013-9-29,76.6,63.8,51.4,53.9,48.2,41.1,85,60,30,30.09,29.88,8,1,0,0.00
2013-9-30,83.5,68.1,54.0,57.6,52.7,48.2,82,60,36,29.88,29.72,19,5,19,0.00
2013-10-1,87.3,73.5,61.7,64.8,59.1,53.0,82,62,42,29.84,29.75,20,6,20,0.00
2013-10-2,85.7,74.6,65.3,70.2,65.6,60.1,92,74,53,29.84,29.71,22,7,22,0.00
2013-10-3,87.0,77.5,69.6,70.6,67.6,64.3,93,73,51,29.76,29.59,25,9,25,0.00
2013-10-4,87.1,76.5,59.6,69.1,64.9,43.1,92,68,53,29.90,29.58,27,10,27,1.20
2013-10-5,67.7,56.7,49.3,43.5,37.1,31.7,62,49,27,30.11,29.89,24,8,24,0.00
2013-10-6,72.5,58.7,46.5,42.6,35.5,29.4,64,44,24,30.15,30.01,22,5,22,0.00
2013-10-7,78.0,62.8,50.5,46.5,41.9,36.2,71,49,26,30.17,30.03,10,2,0,0.00
2013-10-8,79.7,65.5,53.2,47.3,44.3,41.9,68,48,31,30.04,29.88,19,6,19,0.00
2013-10-9,80.5,67.3,54.8,53.4,49.8,44.3,84,56,35,29.95,29.85,22,8,22,0.00
2013-10-10,81.6,69.8,57.7,62.3,57.2,51.8,86,65,47,29.91,29.70,24,9,24,0.00
2013-10-11,84.0,71.8,63.5,61.8,46.9,27.6,89,50,13,29.80,29.67,22,6,22,0.00
2013-10-12,72.1,62.3,55.5,48.2,44.7,37.4,74,54,38,30.15,29.80,25,10,25,0.00
2013-10-13,70.8,61.4,52.1,65.8,54.8,46.6,94,79,68,30.25,30.10,14,4,14,0.34
2013-10-14,71.8,67.8,65.1,69.1,66.1,63.8,97,94,90,30.10,29.76,17,6,17,0.29
2013-10-15,66.7,54.7,48.4,64.9,45.4,40.3,94,72,50,30.14,29.81,24,8,24,0.01
2013-10-16,50.2,46.7,41.6,42.3,39.9,38.3,91,78,64,30.19,30.09,13,4,0,0.02
2013-10-17,70.5,53.3,39.9,49.3,43.0,37.8,93,72,34,30.10,29.96,8,2,0,0.01
2013-10-18,55.4,45.2,36.3,49.2,40.9,34.1,94,86,61,30.23,29.96,29,9,29,0.32
2013-10-19,68.3,48.9,34.3,43.9,37.5,32.5,94,70,30,30.23,30.01,19,3,19,0.01
2013-10-20,69.9,55.9,43.9,52.1,45.0,38.3,84,68,48,30.02,29.76,17,4,17,0.00
2013-10-21,61.1,53.4,48.0,48.8,40.9,34.1,86,64,43,30.14,29.89,24,8,24,0.00
2013-10-22,76.3,58.5,43.9,45.9,41.0,36.3,81,56,24,30.12,30.02,17,3,17,0.00
2013-10-23,82.2,60.7,43.7,50.3,44.7,37.9,87,60,21,30.10,29.91,18,3,18,0.00
2013-10-24,57.3,50.8,42.7,47.2,40.1,36.3,83,68,48,30.38,30.06,24,7,24,0.00
2013-10-25,64.1,50.2,38.7,47.8,40.2,32.8,83,69,54,30.44,30.18,15,4,15,0.00
2013-10-26,64.7,56.5,48.3,59.7,50.9,40.9,93,82,66,30.18,30.06,22,6,22,0.06
2013-10-27,68.7,53.2,38.4,49.4,36.8,30.1,84,58,24,30.16,29.94,13,3,13,0.00
2013-10-28,66.7,59.0,52.5,64.4,57.5,48.9,98,95,84,30.01,29.91,19,7,22,0.00
2013-10-29,75.6,69.7,66.5,68.3,66.1,63.8,94,89,78,29.93,29.80,20,6,20,0.00
2013-10-30,75.7,71.0,68.5,69.0,66.5,58.8,94,86,68,29.85,29.57,22,7,22,0.04
2013-10-31,69.3,59.3,51.0,67.1,46.7,35.8,95,66,33,29.80,29.51,25,5,25,0.08
2013-11-1,67.6,54.5,43.4,45.4,39.2,33.4,84,59,31,30.16,29.79,23,4,23,0.00
2013-11-2,65.8,51.6,39.9,36.9,32.9,29.1,73,51,27,30.33,30.13,12,2,12,0.00
2013-11-3,65.5,53.5,42.5,43.4,37.8,33.7,74,56,37,30.14,29.83,25,9,31,0.00
2013-11-4,69.2,58.3,48.2,55.2,48.3,42.3,90,71,50,29.98,29.82,23,5,23,0.00
2013-11-5,59.8,56.6,44.9,58.7,54.2,40.6,96,92,84,30.06,29.89,20,8,20,1.41
2013-11-6,55.1,44.8,37.8,40.4,35.5,29.1,88,72,38,30.41,30.06,23,5,23,0.00
2013-11-7,66.7,50.3,38.4,43.2,36.9,32.6,80,63,30,30.49,30.32,13,3,13,0.00
2013-11-8,65.2,52.0,40.9,41.5,35.7,30.9,79,56,31,30.32,29.94,31,9,31,0.00
2013-11-9,64.6,53.4,44.2,50.0,45.0,40.0,88,74,56,30.22,29.98,13,3,0,0.00
2013-11-10,59.3,54.4,46.7,55.1,51.4,44.1,93,90,82,30.32,30.22,9,2,0,0.00
2013-11-11,63.3,54.3,38.3,57.1,51.3,34.5,96,90,77,30.49,30.14,31,7,31,0.00
2013-11-12,40.8,33.1,25.4,34.8,19.4,12.0,87,59,31,30.83,30.49,28,10,33,0.00
2013-11-13,51.0,36.1,22.7,24.3,19.7,16.0,78,54,33,30.75,30.28,20,5,20,0.00
2013-11-14,57.6,43.7,34.5,37.2,31.3,21.0,78,62,44,30.28,29.95,23,6,23,0.00
2013-11-15,66.3,50.9,34.5,48.9,40.4,31.3,91,69,45,29.96,29.67,20,5,20,0.00
2013-11-16,79.8,66.4,57.2,55.7,49.5,41.8,78,57,31,29.67,29.42,33,8,33,0.00
2013-11-17,70.4,58.9,44.6,48.3,37.3,25.3,68,46,25,30.10,29.45,20,5,20,0.00
2013-11-18,59.6,48.8,38.7,36.6,30.5,24.0,67,50,31,30.27,30.10,14,4,14,0.00
2013-11-19,63.2,54.8,46.9,39.2,36.5,34.2,67,51,37,30.17,29.85,25,9,25,0.00
2013-11-20,66.7,58.1,52.5,55.7,48.4,34.9,85,70,48,29.86,29.73,26,8,26,0.00
2013-11-21,64.5,45.9,28.9,60.3,42.5,22.9,93,88,78,30.47,29.81,33,10,33,0.00
2013-11-22,31.0,28.2,26.0,25.2,22.1,19.1,88,78,61,30.68,30.47,29,13,29,0.00
2013-11-23,38.8,34.1,30.3,24.3,18.1,7.3,66,53,30,30.76,30.63,23,12,23,0.00
2013-11-24,30.4,26.8,23.6,24.4,21.9,15.4,91,83,57,30.73,30.34,15,4,0,0.01
2013-11-25,34.2,30.8,26.3,32.0,28.5,24.0,94,91,88,30.34,30.24,11,2,0,0.08
2013-11-26,46.9,35.6,26.0,32.2,26.5,20.6,91,71,41,30.50,30.27,23,7,23,0.09
2013-11-27,42.8,31.8,21.3,26.5,21.8,16.7,84,68,45,30.51,30.29,12,3,0,0.00
2013-11-28,57.5,41.6,30.1,36.8,30.4,25.2,87,66,38,30.41,30.27,16,5,16,0.00
2013-11-29,56.1,43.4,31.0,38.2,32.7,25.5,82,67,45,30.41,30.22,24,5,24,0.00
2013-11-30,58.6,46.2,38.7,45.0,39.9,36.0,91,80,59,30.23,30.09,14,3,0,0.00
2013-12-1,60.1,47.0,39.0,43.1,39.2,35.3,92,76,46,30.11,29.92,11,2,0,0.00
2013-12-2,67.4,49.6,37.3,41.7,38.4,35.4,94,69,34,29.92,29.60,9,2,0,0.01
2013-12-3,65.4,51.0,35.2,47.2,40.8,32.3,93,70,44,29.60,29.46,10,2,0,0.00
2013-12-4,49.9,37.4,28.1,39.0,27.9,11.8,86,69,51,30.12,29.46,24,8,24,0.00
2013-12-5,28.0,22.3,18.9,12.2,8.7,4.7,74,56,46,30.39,30.12,28,12,28,0.00
2013-12-6,22.4,17.9,13.3,14.8,9.6,4.1,88,70,47,30.69,30.35,20,10,20,0.00
2013-12-7,19.2,15.0,8.6,12.0,6.1,1.5,73,67,59,30.72,30.34,16,6,15,0.00
2013-12-8,27.4,21.8,18.2,23.6,18.6,11.9,91,87,73,30.35,30.01,15,4,15,0.00
2013-12-9,25.6,20.0,12.6,22.9,14.6,8.4,92,79,64,30.50,30.26,16,6,0,0.00
2013-12-10,42.0,24.8,9.5,24.6,16.7,5.3,84,73,40,30.51,30.25,17,4,17,0.00
2013-12-11,37.6,29.9,23.4,25.2,20.8,14.9,88,70,52,30.67,30.25,29,7,29,0.00
2013-12-12,38.5,30.1,19.5,32.2,22.1,13.5,82,72,58,30.67,30.20,19,5,19,0.00
2013-12-13,52.4,42.3,37.2,42.4,36.7,31.8,92,81,68,30.20,29.72,25,7,25,0.03
2013-12-14,46.1,35.5,28.5,33.6,26.4,21.9,88,71,42,30.33,29.87,25,8,25,0.00
2013-12-15,61.4,41.5,24.1,31.1,27.0,20.3,87,61,29,30.33,30.16,17,3,17,0.00
2013-12-16,69.8,47.0,30.3,33.4,28.3,22.9,82,53,20,30.20,30.10,9,2,0,0.00
2013-12-17,60.5,47.5,35.8,31.4,28.0,24.8,72,49,28,30.32,30.18,21,4,21,0.00
2013-12-18,65.2,49.2,34.1,43.6,34.8,27.4,78,59,36,30.26,29.79,18,6,21,0.00
2013-12-19,64.6,55.5,48.5,50.1,47.6,43.6,91,76,56,29.79,29.55,25,9,25,0.00
2013-12-20,53.4,31.0,23.8,48.9,24.0,15.8,89,75,62,30.00,29.62,25,8,25,0.07
2013-12-21,29.2,27.9,25.2,27.4,25.6,22.3,94,91,86,29.92,29.59,14,5,0,0.00
2013-12-22,32.7,26.5,23.0,26.6,22.7,19.6,90,86,75,30.43,29.90,12,3,0,0.02
2013-12-23,31.8,24.9,21.7,28.1,22.6,19.1,93,91,85,30.64,30.40,13,3,13,0.06
2013-12-24,33.5,29.3,25.2,32.5,28.2,23.5,96,95,93,30.60,30.19,25,6,25,0.00
2013-12-25,47.9,35.6,25.4,36.9,30.8,24.4,97,84,56,30.49,30.31,13,4,0,0.03
2013-12-26,54.1,38.5,25.8,34.8,28.6,22.5,91,70,34,30.46,30.28,17,3,17,0.00
2013-12-27,57.9,41.8,28.6,37.5,31.3,23.6,85,68,41,30.42,30.28,13,2,0,0.00
2013-12-28,57.0,42.2,31.1,43.2,34.1,26.3,93,74,44,30.27,29.89,15,5,18,0.00
2013-12-29,42.9,27.4,18.5,41.4,19.8,11.2,95,73,59,30.38,29.92,28,11,33,0.01
2013-12-30,45.4,28.5,14.1,23.7,17.2,8.8,82,64,40,30.46,30.31,10,2,0,0.00
2013-12-31,53.1,39.5,27.5,30.7,26.8,21.1,79,62,39,30.45,30.07,22,5,22,0.00
2014-1-1,50.2,34.4,21.2,34.9,27.2,16.0,87,75,55,30.41,29.89,28,9,28,0.00
2014-1-2,42.7,28.3,16.9,25.7,19.8,12.6,85,71,49,30.57,30.41,23,4,23,0.00